Data No.,UTC Date,UTC Time,Latitude,Longitude,Course(deg),Temp(degC),Sal(psu)
9276,2006/2/4,14:51:00,00-00.1700N,151-08.6400E,327,30.333,33.8239
9277,2006/2/4,14:52:00,00-00.3600N,151-08.5200E,326,30.332,33.8212
9278,2006/2/4,14:53:00,00-00.5400N,151-08.4000E,325,30.327,33.8189
9279,2006/2/4,14:54:00,00-00.7300N,151-08.2800E,326,30.334,33.8177
9280,2006/2/4,14:55:00,00-00.9200N,151-08.1600E,327,30.334,33.8187
9281,2006/2/4,14:56:00,00-01.1000N,151-08.0400E,328,30.339,33.8173
9282,2006/2/4,14:57:00,00-01.2900N,151-07.9300E,327,30.335,33.8201
9283,2006/2/4,14:58:00,00-01.4700N,151-07.8100E,328,30.336,33.8201
9284,2006/2/4,14:59:00,00-01.6600N,151-07.7000E,327,30.344,33.8171
9285,2006/2/4,15:00:00,00-01.8400N,151-07.5800E,327,30.355,33.8169
9286,2006/2/4,15:01:00,00-02.0300N,151-07.4600E,326,30.355,33.816
9287,2006/2/4,15:02:00,00-02.2200N,151-07.3500E,328,30.348,33.8188
9288,2006/2/4,15:03:00,00-02.4100N,151-07.2300E,327,30.342,33.8181
9289,2006/2/4,15:04:00,00-02.5900N,151-07.1100E,327,30.338,33.8131
9290,2006/2/4,15:05:00,00-02.7800N,151-06.9900E,326,30.338,33.8059
9291,2006/2/4,15:06:00,00-02.9700N,151-06.8700E,326,30.338,33.8067
9292,2006/2/4,15:07:00,00-03.1500N,151-06.7500E,327,30.337,33.8066
9293,2006/2/4,15:08:00,00-03.3300N,151-06.6300E,326,30.337,33.8054
9294,2006/2/4,15:09:00,00-03.5300N,151-06.5000E,328,30.322,33.8065
9295,2006/2/4,15:10:00,00-03.7200N,151-06.3800E,327,30.325,33.8036
9296,2006/2/4,15:11:00,00-03.9100N,151-06.2600E,326,30.323,33.8036
9297,2006/2/4,15:12:00,00-04.0900N,151-06.1400E,327,30.318,33.8035
9298,2006/2/4,15:13:00,00-04.2800N,151-06.0200E,327,30.315,33.8027
9299,2006/2/4,15:14:00,00-04.4600N,151-05.9100E,327,30.302,33.799
9300,2006/2/4,15:15:00,00-04.6500N,151-05.7900E,326,30.307,33.7918
9301,2006/2/4,15:16:00,00-04.8300N,151-05.6600E,327,30.301,33.7866
9302,2006/2/4,15:17:00,00-05.0200N,151-05.5400E,327,30.282,33.7809
9303,2006/2/4,15:18:00,00-05.2000N,151-05.4200E,327,30.28,33.7663
9304,2006/2/4,15:19:00,00-05.3900N,151-05.3000E,326,30.263,33.7599
9305,2006/2/4,15:20:00,00-05.5700N,151-05.1800E,325,30.256,33.756
9306,2006/2/4,15:21:00,00-05.7600N,151-05.0600E,326,30.253,33.7441
9307,2006/2/4,15:22:00,00-05.9400N,151-04.9400E,326,30.276,33.7401
9308,2006/2/4,15:23:00,00-06.1200N,151-04.8200E,326,30.283,33.7534
9309,2006/2/4,15:24:00,00-06.3100N,151-04.7000E,327,30.287,33.7706
9310,2006/2/4,15:25:00,00-06.5000N,151-04.5800E,326,30.307,33.7691
9311,2006/2/4,15:26:00,00-06.6800N,151-04.4600E,326,30.314,33.7802
9312,2006/2/4,15:27:00,00-06.8700N,151-04.3400E,327,30.334,33.7891
9313,2006/2/4,15:28:00,00-07.0500N,151-04.2200E,327,30.335,33.8039
9314,2006/2/4,15:29:00,00-07.2400N,151-04.1000E,326,30.33,33.8131
9315,2006/2/4,15:30:00,00-07.4200N,151-03.9800E,327,30.334,33.8144
9316,2006/2/4,15:31:00,00-07.6100N,151-03.8600E,327,30.331,33.8161
9317,2006/2/4,15:32:00,00-07.7900N,151-03.7300E,325,30.334,33.8149
9318,2006/2/4,15:33:00,00-07.9800N,151-03.6100E,325,30.32,33.8156
9319,2006/2/4,15:34:00,00-08.1500N,151-03.4900E,326,30.329,33.8102
9320,2006/2/4,15:35:00,00-08.3400N,151-03.3700E,326,30.311,33.8097
9321,2006/2/4,15:36:00,00-08.5400N,151-03.2400E,328,30.312,33.7972
9322,2006/2/4,15:37:00,00-08.7300N,151-03.1200E,328,30.297,33.7936
9323,2006/2/4,15:38:00,00-08.9300N,151-03.0100E,328,30.302,33.7903
9324,2006/2/4,15:39:00,00-09.1100N,151-02.9000E,328,30.308,33.7856
9325,2006/2/4,15:40:00,00-09.3000N,151-02.7800E,328,30.315,33.786
9326,2006/2/4,15:41:00,00-09.4900N,151-02.6600E,327,30.312,33.7924
9327,2006/2/4,15:42:00,00-09.6800N,151-02.5500E,327,30.316,33.7949
9328,2006/2/4,15:43:00,00-09.8700N,151-02.4300E,328,30.32,33.8
9329,2006/2/4,15:44:00,00-10.0600N,151-02.3100E,329,30.309,33.799
9330,2006/2/4,15:45:00,00-10.2400N,151-02.2000E,328,30.311,33.7943
9331,2006/2/4,15:46:00,00-10.4300N,151-02.0800E,328,30.307,33.7921
9332,2006/2/4,15:47:00,00-10.6200N,151-01.9700E,328,30.308,33.7926
9333,2006/2/4,15:48:00,00-10.8100N,151-01.8500E,328,30.318,33.7937
9334,2006/2/4,15:49:00,00-11.0000N,151-01.7400E,329,30.315,33.7959
9335,2006/2/4,15:50:00,00-11.1900N,151-01.6200E,329,30.311,33.8009
9336,2006/2/4,15:51:00,00-11.3700N,151-01.5100E,328,30.317,33.7992
9337,2006/2/4,15:52:00,00-11.5700N,151-01.4000E,327,30.294,33.8025
9338,2006/2/4,15:53:00,00-11.7500N,151-01.2800E,328,30.287,33.7979
9339,2006/2/4,15:54:00,00-11.9400N,151-01.1700E,328,30.305,33.7769
9340,2006/2/4,15:55:00,00-12.1300N,151-01.0500E,329,30.304,33.7769
9341,2006/2/4,15:56:00,00-12.3300N,151-00.9400E,328,30.287,33.7767
9342,2006/2/4,15:57:00,00-12.5200N,151-00.8200E,329,30.279,33.7707
9343,2006/2/4,15:58:00,00-12.7100N,151-00.7100E,328,30.272,33.7619
9344,2006/2/4,15:59:00,00-12.8900N,151-00.6000E,328,30.277,33.7597
9345,2006/2/4,16:00:00,00-13.0800N,151-00.4800E,328,30.263,33.7552
9346,2006/2/4,16:01:00,00-13.2700N,151-00.3700E,329,30.259,33.7514
9347,2006/2/4,16:02:00,00-13.4600N,151-00.2500E,328,30.261,33.7517
9348,2006/2/4,16:03:00,00-13.6600N,151-00.1300E,329,30.26,33.7488
9349,2006/2/4,16:04:00,00-13.8500N,151-00.0200E,328,30.277,33.7495
9350,2006/2/4,16:05:00,00-14.0400N,150-59.9100E,328,30.271,33.7561
9351,2006/2/4,16:06:00,00-14.2300N,150-59.7900E,329,30.267,33.7631
9352,2006/2/4,16:07:00,00-14.4200N,150-59.6800E,328,30.274,33.76
9353,2006/2/4,16:08:00,00-14.6000N,150-59.5700E,329,30.269,33.759
9354,2006/2/4,16:09:00,00-14.7900N,150-59.4600E,329,30.271,33.764
9355,2006/2/4,16:10:00,00-14.9800N,150-59.3400E,329,30.269,33.7639
9356,2006/2/4,16:11:00,00-15.1700N,150-59.2300E,329,30.266,33.763
9357,2006/2/4,16:12:00,00-15.3600N,150-59.1200E,328,30.271,33.7674
9358,2006/2/4,16:13:00,00-15.5500N,150-59.0100E,328,30.297,33.7692
9359,2006/2/4,16:14:00,00-15.7300N,150-58.8900E,328,30.298,33.7771
9360,2006/2/4,16:15:00,00-15.9200N,150-58.7800E,328,30.318,33.7868
9361,2006/2/4,16:16:00,00-16.1100N,150-58.6600E,328,30.316,33.7898
9362,2006/2/4,16:17:00,00-16.3000N,150-58.5500E,330,30.315,33.7927
9363,2006/2/4,16:18:00,00-16.4800N,150-58.4500E,329,30.322,33.7922
9364,2006/2/4,16:19:00,00-16.6800N,150-58.3400E,330,30.318,33.7961
9365,2006/2/4,16:20:00,00-16.8600N,150-58.2300E,328,30.327,33.7974
9366,2006/2/4,16:21:00,00-17.0500N,150-58.1100E,326,30.319,33.8017
9367,2006/2/4,16:22:00,00-17.2300N,150-57.9900E,326,30.314,33.8005
9368,2006/2/4,16:23:00,00-17.4100N,150-57.8700E,326,30.315,33.7973
9369,2006/2/4,16:24:00,00-17.6000N,150-57.7400E,325,30.321,33.7956
9370,2006/2/4,16:25:00,00-17.7800N,150-57.6200E,326,30.317,33.7962
9371,2006/2/4,16:26:00,00-17.9700N,150-57.5000E,327,30.315,33.7978
9372,2006/2/4,16:27:00,00-18.1500N,150-57.3800E,326,30.322,33.7988
9373,2006/2/4,16:28:00,00-18.3300N,150-57.2700E,328,30.331,33.8033
9374,2006/2/4,16:29:00,00-18.5200N,150-57.1500E,327,30.337,33.8069
9375,2006/2/4,16:30:00,00-18.7000N,150-57.0300E,326,30.349,33.8137
9376,2006/2/4,16:31:00,00-18.9000N,150-56.9100E,326,30.347,33.8181
9377,2006/2/4,16:32:00,00-19.0800N,150-56.7900E,327,30.344,33.8211
9378,2006/2/4,16:33:00,00-19.2700N,150-56.6700E,326,30.354,33.8214
9379,2006/2/4,16:34:00,00-19.4500N,150-56.5500E,326,30.351,33.8244
9380,2006/2/4,16:35:00,00-19.6400N,150-56.4300E,327,30.36,33.8273
9381,2006/2/4,16:36:00,00-19.8200N,150-56.3100E,326,30.36,33.8274
9382,2006/2/4,16:37:00,00-20.0000N,150-56.1900E,326,30.365,33.8295
9383,2006/2/4,16:38:00,00-20.1900N,150-56.0700E,327,30.368,33.8331
9384,2006/2/4,16:39:00,00-20.3700N,150-55.9500E,327,30.37,33.834
9385,2006/2/4,16:40:00,00-20.5600N,150-55.8400E,328,30.37,33.8349
9386,2006/2/4,16:41:00,00-20.7500N,150-55.7200E,327,30.373,33.8377
9387,2006/2/4,16:42:00,00-20.9400N,150-55.6000E,328,30.382,33.8371
9388,2006/2/4,16:43:00,00-21.1300N,150-55.4800E,328,30.38,33.8386
9389,2006/2/4,16:44:00,00-21.3100N,150-55.3700E,327,30.38,33.8382
9390,2006/2/4,16:45:00,00-21.5000N,150-55.2500E,328,30.374,33.8383
9391,2006/2/4,16:46:00,00-21.6900N,150-55.1300E,328,30.367,33.8372
9392,2006/2/4,16:47:00,00-21.8900N,150-55.0100E,328,30.356,33.8366
9393,2006/2/4,16:48:00,00-22.0700N,150-54.9000E,327,30.352,33.834
9394,2006/2/4,16:49:00,00-22.2700N,150-54.7800E,329,30.352,33.8299
9395,2006/2/4,16:50:00,00-22.4500N,150-54.6700E,329,30.346,33.8303
9396,2006/2/4,16:51:00,00-22.6400N,150-54.5600E,328,30.344,33.8283
9397,2006/2/4,16:52:00,00-22.8300N,150-54.4400E,328,30.343,33.8241
9398,2006/2/4,16:53:00,00-23.0300N,150-54.3200E,328,30.343,33.8222
9399,2006/2/4,16:54:00,00-23.2100N,150-54.2100E,327,30.34,33.8218
9400,2006/2/4,16:55:00,00-23.4100N,150-54.0800E,327,30.337,33.8214
9401,2006/2/4,16:56:00,00-23.6000N,150-53.9700E,328,30.333,33.8219
9402,2006/2/4,16:57:00,00-23.7900N,150-53.8500E,328,30.336,33.8201
9403,2006/2/4,16:58:00,00-24.0000N,150-53.7300E,328,30.337,33.8206
9404,2006/2/4,16:59:00,00-24.1900N,150-53.6100E,328,30.333,33.8246
9405,2006/2/4,17:00:00,00-24.3800N,150-53.5000E,328,30.331,33.8234
9406,2006/2/4,17:01:00,00-24.5800N,150-53.3800E,328,30.337,33.8217
9407,2006/2/4,17:02:00,00-24.7600N,150-53.2600E,326,30.338,33.8215
9408,2006/2/4,17:03:00,00-24.9600N,150-53.1300E,326,30.344,33.8235
9409,2006/2/4,17:04:00,00-25.1500N,150-53.0100E,327,30.344,33.823
9410,2006/2/4,17:05:00,00-25.3400N,150-52.8900E,327,30.342,33.8217
9411,2006/2/4,17:06:00,00-25.5300N,150-52.7700E,327,30.348,33.8198
9412,2006/2/4,17:07:00,00-25.7200N,150-52.6500E,328,30.345,33.8184
9413,2006/2/4,17:08:00,00-25.9100N,150-52.5300E,328,30.342,33.8197
9414,2006/2/4,17:09:00,00-26.1000N,150-52.4200E,329,30.341,33.8198
9415,2006/2/4,17:10:00,00-26.3000N,150-52.3000E,328,30.339,33.8223
9416,2006/2/4,17:11:00,00-26.4900N,150-52.1800E,328,30.335,33.824
9417,2006/2/4,17:12:00,00-26.6800N,150-52.0700E,328,30.338,33.8261
9418,2006/2/4,17:13:00,00-26.8600N,150-51.9500E,328,30.336,33.8264
9419,2006/2/4,17:14:00,00-27.0600N,150-51.8300E,328,30.34,33.8284
9420,2006/2/4,17:15:00,00-27.2500N,150-51.7200E,329,30.345,33.8285
9421,2006/2/4,17:16:00,00-27.4500N,150-51.6000E,329,30.351,33.8325
9422,2006/2/4,17:17:00,00-27.6300N,150-51.4900E,328,30.346,33.8355
9423,2006/2/4,17:18:00,00-27.8300N,150-51.3700E,330,30.343,33.8354
9424,2006/2/4,17:19:00,00-28.0200N,150-51.2600E,328,30.339,33.8348
9425,2006/2/4,17:20:00,00-28.2100N,150-51.1500E,329,30.336,33.8337
9426,2006/2/4,17:21:00,00-28.4100N,150-51.0400E,329,30.333,33.8349
9427,2006/2/4,17:22:00,00-28.6000N,150-50.9300E,329,30.333,33.8331
9428,2006/2/4,17:23:00,00-28.8000N,150-50.8100E,329,30.328,33.8329
9429,2006/2/4,17:24:00,00-28.9800N,150-50.7000E,329,30.332,33.8322
9430,2006/2/4,17:25:00,00-29.1800N,150-50.5800E,328,30.33,33.8305
9431,2006/2/4,17:26:00,00-29.3700N,150-50.4600E,328,30.33,33.8301
9432,2006/2/4,17:27:00,00-29.5700N,150-50.3400E,328,30.331,33.8301
9433,2006/2/4,17:28:00,00-29.7700N,150-50.2200E,328,30.331,33.8286
9434,2006/2/4,17:29:00,00-29.9600N,150-50.1100E,328,30.333,33.8287
9435,2006/2/4,17:30:00,00-30.1400N,150-49.9900E,327,30.331,33.8271
9436,2006/2/4,17:31:00,00-30.3400N,150-49.8700E,327,30.331,33.8272
9437,2006/2/4,17:32:00,00-30.5200N,150-49.7600E,328,30.332,33.8265
9438,2006/2/4,17:33:00,00-30.7100N,150-49.6400E,327,30.333,33.8259
9439,2006/2/4,17:34:00,00-30.9000N,150-49.5200E,328,30.328,33.8271
9440,2006/2/4,17:35:00,00-31.0900N,150-49.4100E,328,30.33,33.8263
9441,2006/2/4,17:36:00,00-31.2800N,150-49.2900E,326,30.333,33.8266
9442,2006/2/4,17:37:00,00-31.4700N,150-49.1700E,327,30.332,33.8285
9443,2006/2/4,17:38:00,00-31.6600N,150-49.0500E,327,30.328,33.8272
9444,2006/2/4,17:39:00,00-31.8500N,150-48.9300E,327,30.322,33.8284
9445,2006/2/4,17:40:00,00-32.0400N,150-48.8100E,327,30.326,33.826
9446,2006/2/4,17:41:00,00-32.2300N,150-48.7000E,328,30.326,33.8253
9447,2006/2/4,17:42:00,00-32.4200N,150-48.5800E,328,30.324,33.8263
9448,2006/2/4,17:43:00,00-32.6100N,150-48.4600E,328,30.325,33.8252
9449,2006/2/4,17:44:00,00-32.8000N,150-48.3400E,327,30.323,33.8235
9450,2006/2/4,17:45:00,00-32.9900N,150-48.2200E,327,30.321,33.8231
9451,2006/2/4,17:46:00,00-33.1800N,150-48.1100E,327,30.32,33.8235
9452,2006/2/4,17:47:00,00-33.3700N,150-47.9900E,328,30.323,33.8222
9453,2006/2/4,17:48:00,00-33.5600N,150-47.8700E,328,30.317,33.8204
9454,2006/2/4,17:49:00,00-33.7500N,150-47.7500E,327,30.311,33.8173
9455,2006/2/4,17:50:00,00-33.9400N,150-47.6300E,328,30.317,33.8136
9456,2006/2/4,17:51:00,00-34.1300N,150-47.5200E,327,30.313,33.8135
9457,2006/2/4,17:52:00,00-34.3200N,150-47.4000E,326,30.315,33.8139
9458,2006/2/4,17:53:00,00-34.5100N,150-47.2800E,328,30.316,33.8127
9459,2006/2/4,17:54:00,00-34.7100N,150-47.1500E,327,30.316,33.8138
9460,2006/2/4,17:55:00,00-34.9000N,150-47.0300E,328,30.311,33.8125
9461,2006/2/4,17:56:00,00-35.0900N,150-46.9200E,328,30.306,33.8087
9462,2006/2/4,17:57:00,00-35.2800N,150-46.8000E,327,30.309,33.8057
9463,2006/2/4,17:58:00,00-35.4700N,150-46.6800E,328,30.302,33.804
9464,2006/2/4,17:59:00,00-35.6600N,150-46.5600E,328,30.31,33.8003
9465,2006/2/4,18:00:00,00-35.8500N,150-46.4500E,327,30.312,33.8017
9466,2006/2/4,18:01:00,00-36.0400N,150-46.3300E,328,30.309,33.8027
9467,2006/2/4,18:02:00,00-36.2300N,150-46.2100E,327,30.314,33.8077
9468,2006/2/4,18:03:00,00-36.4300N,150-46.1000E,329,30.305,33.8048
9469,2006/2/4,18:04:00,00-36.6200N,150-45.9900E,328,30.302,33.803
9470,2006/2/4,18:05:00,00-36.8100N,150-45.8700E,328,30.297,33.8023
9471,2006/2/4,18:06:00,00-37.0000N,150-45.7500E,327,30.289,33.7967
9472,2006/2/4,18:07:00,00-37.1900N,150-45.6400E,328,30.281,33.7894
9473,2006/2/4,18:08:00,00-37.3800N,150-45.5200E,328,30.278,33.7774
9474,2006/2/4,18:09:00,00-37.5700N,150-45.4000E,328,30.282,33.7687
9475,2006/2/4,18:10:00,00-37.7700N,150-45.2800E,328,30.248,33.7608
9476,2006/2/4,18:11:00,00-37.9600N,150-45.1600E,328,30.172,33.7441
9477,2006/2/4,18:12:00,00-38.1500N,150-45.0500E,328,30.188,33.71
9478,2006/2/4,18:13:00,00-38.3400N,150-44.9300E,327,30.217,33.66
9479,2006/2/4,18:14:00,00-38.5300N,150-44.8200E,328,30.254,33.6653
9480,2006/2/4,18:15:00,00-38.7300N,150-44.7000E,328,30.239,33.703
9481,2006/2/4,18:16:00,00-38.9200N,150-44.5900E,327,30.239,33.7272
9482,2006/2/4,18:17:00,00-39.1000N,150-44.4700E,328,30.213,33.7225
9483,2006/2/4,18:18:00,00-39.2900N,150-44.3500E,328,30.224,33.7173
9484,2006/2/4,18:19:00,00-39.4800N,150-44.2300E,328,30.248,33.7001
9485,2006/2/4,18:20:00,00-39.6700N,150-44.1200E,328,30.264,33.7128
9486,2006/2/4,18:21:00,00-39.8800N,150-43.9900E,329,30.277,33.7208
9487,2006/2/4,18:22:00,00-40.0600N,150-43.8800E,327,30.275,33.7313
9488,2006/2/4,18:23:00,00-40.2600N,150-43.7600E,329,30.278,33.7413
9489,2006/2/4,18:24:00,00-40.4500N,150-43.6500E,328,30.267,33.7451
9490,2006/2/4,18:25:00,00-40.6400N,150-43.5400E,328,30.279,33.7488
9491,2006/2/4,18:26:00,00-40.8400N,150-43.4200E,328,30.29,33.7582
9492,2006/2/4,18:27:00,00-41.0200N,150-43.3000E,327,30.286,33.7722
9493,2006/2/4,18:28:00,00-41.2100N,150-43.1800E,327,30.292,33.7811
9494,2006/2/4,18:29:00,00-41.4100N,150-43.0700E,328,30.298,33.7799
9495,2006/2/4,18:30:00,00-41.6000N,150-42.9500E,329,30.275,33.7839
9496,2006/2/4,18:31:00,00-41.7900N,150-42.8400E,329,30.254,33.7885
9497,2006/2/4,18:32:00,00-41.9800N,150-42.7200E,328,30.237,33.7746
9498,2006/2/4,18:33:00,00-42.1700N,150-42.6000E,328,30.231,33.7698
9499,2006/2/4,18:34:00,00-42.3700N,150-42.4900E,330,30.22,33.7499
9500,2006/2/4,18:35:00,00-42.5600N,150-42.3800E,329,30.244,33.7309
9501,2006/2/4,18:36:00,00-42.7500N,150-42.2600E,328,30.257,33.7306
9502,2006/2/4,18:37:00,00-42.9400N,150-42.1500E,328,30.256,33.7449
9503,2006/2/4,18:38:00,00-43.1400N,150-42.0300E,329,30.284,33.7451
9504,2006/2/4,18:39:00,00-43.3300N,150-41.9200E,328,30.283,33.7466
9505,2006/2/4,18:40:00,00-43.5200N,150-41.8000E,328,30.269,33.7543
9506,2006/2/4,18:41:00,00-43.7100N,150-41.6800E,328,30.272,33.7583
9507,2006/2/4,18:42:00,00-43.9100N,150-41.5600E,328,30.247,33.7551
9508,2006/2/4,18:43:00,00-44.1000N,150-41.4500E,327,30.292,33.7438
9509,2006/2/4,18:44:00,00-44.2900N,150-41.3300E,328,30.225,33.7644
9510,2006/2/4,18:45:00,00-44.4900N,150-41.2100E,329,30.19,33.7486
9511,2006/2/4,18:46:00,00-44.6900N,150-41.1000E,329,30.182,33.7273
9512,2006/2/4,18:47:00,00-44.8800N,150-40.9800E,328,30.204,33.7232
9513,2006/2/4,18:48:00,00-45.0900N,150-40.8600E,328,30.223,33.727
9514,2006/2/4,18:49:00,00-45.2900N,150-40.7400E,329,30.245,33.7387
9515,2006/2/4,18:50:00,00-45.4800N,150-40.6300E,328,30.267,33.7589
9516,2006/2/4,18:51:00,00-45.6700N,150-40.5100E,328,30.268,33.7824
9517,2006/2/4,18:52:00,00-45.8600N,150-40.3900E,328,30.297,33.7931
9518,2006/2/4,18:53:00,00-46.0500N,150-40.2700E,328,30.308,33.8086
9519,2006/2/4,18:54:00,00-46.2500N,150-40.1600E,327,30.316,33.8186
9520,2006/2/4,18:55:00,00-46.4400N,150-40.0500E,330,30.315,33.8276
9521,2006/2/4,18:56:00,00-46.6400N,150-39.9300E,329,30.314,33.8331
9522,2006/2/4,18:57:00,00-46.8300N,150-39.8200E,329,30.312,33.8344
9523,2006/2/4,18:58:00,00-47.0300N,150-39.7000E,329,30.313,33.8368
9524,2006/2/4,18:59:00,00-47.2200N,150-39.5900E,329,30.314,33.8385
9525,2006/2/4,19:00:00,00-47.4100N,150-39.4700E,326,30.319,33.839
9526,2006/2/4,19:01:00,00-47.6000N,150-39.3400E,325,30.318,33.8397
9527,2006/2/4,19:02:00,00-47.7800N,150-39.2100E,324,30.324,33.8425
9528,2006/2/4,19:03:00,00-47.9700N,150-39.0800E,325,30.331,33.8457
9529,2006/2/4,19:04:00,00-48.1500N,150-38.9600E,326,30.334,33.848
9530,2006/2/4,19:05:00,00-48.3300N,150-38.8400E,326,30.338,33.8502
9531,2006/2/4,19:06:00,00-48.5200N,150-38.7100E,324,30.339,33.8503
9532,2006/2/4,19:07:00,00-48.7000N,150-38.5800E,325,30.341,33.8523
9533,2006/2/4,19:08:00,00-48.8900N,150-38.4500E,324,30.341,33.853
9534,2006/2/4,19:09:00,00-49.0700N,150-38.3200E,324,30.348,33.8536
9535,2006/2/4,19:10:00,00-49.2500N,150-38.2000E,324,30.346,33.8562
9536,2006/2/4,19:11:00,00-49.4400N,150-38.0700E,324,30.35,33.8558
9537,2006/2/4,19:12:00,00-49.6200N,150-37.9300E,324,30.353,33.8578
9538,2006/2/4,19:13:00,00-49.8000N,150-37.8000E,324,30.355,33.8581
9539,2006/2/4,19:14:00,00-49.9800N,150-37.6700E,324,30.357,33.8589
9540,2006/2/4,19:15:00,00-50.1700N,150-37.5400E,324,30.35,33.8605
9541,2006/2/4,19:16:00,00-50.3500N,150-37.4100E,324,30.356,33.8608
9542,2006/2/4,19:17:00,00-50.5500N,150-37.2700E,323,30.352,33.8612
9543,2006/2/4,19:18:00,00-50.7400N,150-37.1400E,323,30.35,33.8589
9544,2006/2/4,19:19:00,00-50.9200N,150-37.0100E,324,30.351,33.8603
9545,2006/2/4,19:20:00,00-51.1000N,150-36.8800E,325,30.347,33.8607
9546,2006/2/4,19:21:00,00-51.2800N,150-36.7500E,323,30.349,33.8609
9547,2006/2/4,19:22:00,00-51.4700N,150-36.6100E,323,30.346,33.8615
9548,2006/2/4,19:23:00,00-51.6500N,150-36.4800E,324,30.349,33.86
9549,2006/2/4,19:24:00,00-51.8400N,150-36.3500E,324,30.352,33.8597
9550,2006/2/4,19:25:00,00-52.0300N,150-36.2200E,323,30.348,33.8593
9551,2006/2/4,19:26:00,00-52.2100N,150-36.0900E,324,30.348,33.8618
9552,2006/2/4,19:27:00,00-52.4000N,150-35.9500E,324,30.349,33.8614
9553,2006/2/4,19:28:00,00-52.5800N,150-35.8200E,323,30.347,33.862
9554,2006/2/4,19:29:00,00-52.7700N,150-35.6800E,323,30.338,33.8626
9555,2006/2/4,19:30:00,00-52.9500N,150-35.5500E,323,30.342,33.8593
9556,2006/2/4,19:31:00,00-53.1400N,150-35.4100E,325,30.343,33.8593
9557,2006/2/4,19:32:00,00-53.3300N,150-35.2800E,325,30.34,33.8607
9558,2006/2/4,19:33:00,00-53.5200N,150-35.1500E,324,30.341,33.8615
9559,2006/2/4,19:34:00,00-53.7100N,150-35.0200E,324,30.339,33.8606
9560,2006/2/4,19:35:00,00-53.9000N,150-34.8800E,324,30.339,33.8592
9561,2006/2/4,19:36:00,00-54.0800N,150-34.7500E,323,30.34,33.8574
9562,2006/2/4,19:37:00,00-54.2700N,150-34.6200E,325,30.336,33.8595
9563,2006/2/4,19:38:00,00-54.4600N,150-34.4900E,324,30.341,33.8591
9564,2006/2/4,19:39:00,00-54.6400N,150-34.3600E,324,30.342,33.861
9565,2006/2/4,19:40:00,00-54.8300N,150-34.2200E,324,30.344,33.8621
9566,2006/2/4,19:41:00,00-55.0200N,150-34.0900E,324,30.345,33.8624
9567,2006/2/4,19:42:00,00-55.2100N,150-33.9600E,325,30.345,33.8623
9568,2006/2/4,19:43:00,00-55.4000N,150-33.8300E,327,30.343,33.8622
9569,2006/2/4,19:44:00,00-55.6100N,150-33.7100E,328,30.347,33.8654
9570,2006/2/4,19:45:00,00-55.8000N,150-33.5900E,327,30.348,33.8636
9571,2006/2/4,19:46:00,00-55.9900N,150-33.4700E,328,30.345,33.8652
9572,2006/2/4,19:47:00,00-56.1900N,150-33.3500E,327,30.347,33.8664
9573,2006/2/4,19:48:00,00-56.3900N,150-33.2300E,327,30.349,33.8646
9574,2006/2/4,19:49:00,00-56.5800N,150-33.1000E,327,30.347,33.8663
9575,2006/2/4,19:50:00,00-56.7700N,150-32.9800E,326,30.346,33.8656
9576,2006/2/4,19:51:00,00-56.9600N,150-32.8500E,326,30.347,33.8666
9577,2006/2/4,19:52:00,00-57.1600N,150-32.7300E,327,30.349,33.8678
9578,2006/2/4,19:53:00,00-57.3500N,150-32.6100E,328,30.354,33.8679
9579,2006/2/4,19:54:00,00-57.5500N,150-32.4900E,327,30.349,33.8705
9580,2006/2/4,19:55:00,00-57.7400N,150-32.3600E,328,30.352,33.8704
9581,2006/2/4,19:56:00,00-57.9400N,150-32.2400E,326,30.346,33.8696
9582,2006/2/4,19:57:00,00-58.1300N,150-32.1300E,328,30.352,33.8704
9583,2006/2/4,19:58:00,00-58.3300N,150-32.0000E,328,30.351,33.869
9584,2006/2/4,19:59:00,00-58.5300N,150-31.8800E,327,30.352,33.869
9585,2006/2/4,20:00:00,00-58.7200N,150-31.7700E,328,30.353,33.8677
9586,2006/2/4,20:01:00,00-58.9200N,150-31.6400E,327,30.358,33.8682
9587,2006/2/4,20:02:00,00-59.1100N,150-31.5200E,327,30.357,33.8687
9588,2006/2/4,20:03:00,00-59.3000N,150-31.3900E,326,30.36,33.8688
9589,2006/2/4,20:04:00,00-59.4900N,150-31.2700E,327,30.362,33.8671
9590,2006/2/4,20:05:00,00-59.6800N,150-31.1500E,328,30.362,33.8689
9591,2006/2/4,20:06:00,00-59.8800N,150-31.0300E,326,30.369,33.8666
9592,2006/2/4,20:07:00,01-00.0700N,150-30.9000E,327,30.363,33.8645
9593,2006/2/4,20:08:00,01-00.2700N,150-30.7800E,328,30.319,33.8592
9594,2006/2/4,20:09:00,01-00.4600N,150-30.6600E,328,30.326,33.8361
9595,2006/2/4,20:10:00,01-00.6600N,150-30.5400E,326,30.361,33.8182
9596,2006/2/4,20:11:00,01-00.8500N,150-30.4100E,327,30.358,33.83
9597,2006/2/4,20:12:00,01-01.0600N,150-30.2800E,326,30.335,33.8447
9598,2006/2/4,20:13:00,01-01.2600N,150-30.1600E,328,30.325,33.8289
9599,2006/2/4,20:14:00,01-01.4600N,150-30.0500E,329,30.323,33.8176
9600,2006/2/4,20:15:00,01-01.6600N,150-29.9300E,329,30.315,33.8194
9601,2006/2/4,20:16:00,01-01.8500N,150-29.8200E,329,30.332,33.823
9602,2006/2/4,20:17:00,01-02.0600N,150-29.7000E,328,30.34,33.8302
9603,2006/2/4,20:18:00,01-02.2500N,150-29.5800E,329,30.354,33.8405
9604,2006/2/4,20:19:00,01-02.4600N,150-29.4600E,328,30.358,33.8473
9605,2006/2/4,20:20:00,01-02.6500N,150-29.3400E,329,30.354,33.852
9606,2006/2/4,20:21:00,01-02.8600N,150-29.2200E,329,30.354,33.854
9607,2006/2/4,20:22:00,01-03.0600N,150-29.1000E,328,30.354,33.8549
9608,2006/2/4,20:23:00,01-03.2600N,150-28.9800E,329,30.349,33.8566
9609,2006/2/4,20:24:00,01-03.4600N,150-28.8600E,329,30.352,33.8564
9610,2006/2/4,20:25:00,01-03.6600N,150-28.7400E,328,30.357,33.8573
9611,2006/2/4,20:26:00,01-03.8600N,150-28.6300E,330,30.354,33.8579
9612,2006/2/4,20:27:00,01-04.0600N,150-28.5100E,330,30.354,33.8574
9613,2006/2/4,20:28:00,01-04.2600N,150-28.4000E,330,30.346,33.8571
9614,2006/2/4,20:29:00,01-04.4700N,150-28.2900E,330,30.357,33.8566
9615,2006/2/4,20:30:00,01-04.6700N,150-28.1700E,329,30.347,33.8587
9616,2006/2/4,20:31:00,01-04.8700N,150-28.0500E,328,30.331,33.8598
9617,2006/2/4,20:32:00,01-05.0700N,150-27.9300E,328,30.339,33.8539
9618,2006/2/4,20:33:00,01-05.2700N,150-27.8100E,328,30.362,33.8496
9619,2006/2/4,20:34:00,01-05.4700N,150-27.6900E,328,30.365,33.8609
9620,2006/2/4,20:35:00,01-05.6800N,150-27.5700E,330,30.37,33.8676
9621,2006/2/4,20:36:00,01-05.8800N,150-27.4600E,330,30.37,33.8702
9622,2006/2/4,20:37:00,01-06.0800N,150-27.3400E,329,30.364,33.8732
9623,2006/2/4,20:38:00,01-06.2900N,150-27.2200E,330,30.357,33.8734
9624,2006/2/4,20:39:00,01-06.5100N,150-27.0900E,329,30.358,33.8714
9625,2006/2/4,20:40:00,01-06.7100N,150-26.9800E,329,30.351,33.8703
9626,2006/2/4,20:41:00,01-06.9200N,150-26.8600E,330,30.352,33.8687
9627,2006/2/4,20:42:00,01-07.1200N,150-26.7500E,330,30.349,33.8646